Creek Data

    Home     View Charts     View Raw Data     Messages

ID Distance Battery Voltage Battery Current Internal Temp Internal Humidity External Temp Solar Input rssi snr Time Stamp Record
33335 14.4 3.80 -5 54 39 56 0 -70 8 02/24/2025 09:00 PM 15021
33334 14.4 3.80 -5 54 39 56 0 -69 8 02/24/2025 08:45 PM 15020
33333 14.4 3.86 -5 54 39 56 0 -71 8 02/24/2025 08:30 PM 15019
33332 14.4 3.80 -5 54 40 55 0 -71 8 02/24/2025 08:15 PM 15018
33331 14.4 3.81 -5 55 40 56 0 -71 8 02/24/2025 08:00 PM 15017
33330 14.4 3.80 -5 55 40 56 0 -70 7 02/24/2025 07:45 PM 15016
33329 14.4 3.86 -5 55 40 57 0 -71 8 02/24/2025 07:30 PM 15015
33328 14.4 3.78 -5 56 40 57 0.1 -69 8 02/24/2025 07:15 PM 15014
33327 14.4 3.79 -5 56 41 57 0 -71 8 02/24/2025 07:00 PM 15013
33326 14.4 3.86 -5 57 41 58 0 -70 8 02/24/2025 06:45 PM 15012
33325 14.4 3.79 -5 58 41 58 0 -70 8 02/24/2025 06:30 PM 15011
33324 14.4 3.78 -5 58 42 59 0.5 -71 7 02/24/2025 06:15 PM 15010
33323 14.4 3.78 -10 60 42 59 3.7 -71 8 02/24/2025 06:00 PM 15009
33322 14.5 3.87 0 62 42 60 4.5 -70 8 02/24/2025 05:45 PM 15008
33321 14.5 3.92 5 65 41 62 4.5 -71 8 02/24/2025 05:30 PM 15007
33320 14.5 3.96 58 67 40 63 4.5 -71 8 02/24/2025 05:15 PM 15006
33319 14.5 3.91 0 65 42 63 4.5 -70 8 02/24/2025 05:00 PM 15005
33318 14.5 3.84 7 66 42 64 4.5 -70 8 02/24/2025 04:45 PM 15004
33317 14.5 3.78 0 70 40 66 5.1 -71 7 02/24/2025 04:30 PM 15003
33316 14.6 3.78 0 73 39 67 5.1 -69 8 02/24/2025 04:15 PM 15002
33315 14.5 3.79 0 72 40 66 5.1 -69 8 02/24/2025 04:00 PM 15001
33314 14.6 3.78 0 74 38 67 5.1 -70 8 02/24/2025 03:45 PM 15000
33313 14.6 4.02 0 73 38 69 5.1 -70 8 02/24/2025 03:30 PM 14999
33312 14.6 3.78 0 71 40 67 5.1 -69 8 02/24/2025 03:15 PM 14998
33311 14.6 3.78 0 72 40 66 5.1 -71 5 02/24/2025 03:00 PM 14997